Concord, NH

3:10 AM EDT on March 23, 2017 (GMT -0400)
Concord Municipal

Weather History for KCON - February, 2014

Change the Weather History Date:

Thursday, February 6, 2014

  Actual Average Record
Temperature  
Mean Temperature 12 °F 22 °F  
Max Temperature 25 °F 33 °F 54 °F (1873)
Min Temperature -1 °F 12 °F -20 °F (1948)
Degree Days  
Heating Degree Days 53 43  
Month to date heating degree days 240 259  
Since 1 July heating degree days 4437 4381  
Cooling Degree Days 0 0  
Month to date cooling degree days 0 0  
Year to date cooling degree days 0 0  
Moisture  
Dew Point 6 °F    
Average Humidity 66    
Maximum Humidity 91    
Minimum Humidity 40    
Precipitation  
Precipitation T in 0.09 in 1.10 in (2008)
Month to date precipitation 0.78 0.55  
Year to date precipitation 3.99 3.25  
Snow  
Snow T in 0.50 in 7.10 in (1905)
Month to date snowfall 7.8 2.9  
Since 1 July snowfall 42.3 38.1  
Snow Depth 16.00 in    
Sea Level Pressure  
Sea Level Pressure 30.16 in    
Wind  
Wind Speed 5 mph (NW)    
Max Wind Speed 15 mph    
Max Gust Speed 20 mph    
Visibility 9 miles    
Events Fog    
T = Trace of Precipitation, MM = Missing Value Source: NWS Daily Summary

Daily Weather History Graph

Daily Weather History Graph

Search for Another Location

Airport or City:

Trip Planner

Search our weather history database for the weather conditions in past years. The results will help you decide how hot, cold, wet, or windy it might be!

Date:

Astronomy

Feb. 06, 2014 Rise Set
Actual Time 6:55 AM EST 5:04 PM EST
Civil Twilight 6:25 AM EST 5:34 PM EST
Nautical Twilight 5:52 AM EST 6:08 PM EST
Astronomical Twilight 5:18 AM EST 6:41 PM EST
Moon 10:34 AM EST (2/6) 12:08 AM EST (2/6)
Length of Visible Light 11h 08m
Length of Day
10h 09m
Waxing Crescent, 49% of the Moon is Illuminated
Feb 6
Waxing Crescent
Feb 6
First Quarter
Feb 14
Full
Feb 22
Last Quarter
Mar 1
New

Hourly Weather History & Observations

Time (EST) Temp. Windchill Dew Point Humidity Pressure Visibility Wind Dir Wind Speed Gust Speed Precip Events Conditions
12:32 AM 19.9 °F - 18.0 °F 92% 29.95 in 9.0 mi Calm Calm - N/A   Overcast
12:51 AM 19.9 °F - 18.0 °F 92% 29.99 in 10.0 mi Calm Calm - N/A   Overcast
1:24 AM 16.0 °F - 14.0 °F 92% 29.98 in 1.2 mi Calm Calm - N/A   Scattered Clouds
1:30 AM 14.0 °F 8.2 °F 12.9 °F 95% 29.98 in 0.5 mi WNW 3.5 mph - N/A Fog Light Freezing Fog
1:38 AM 14.0 °F 3.9 °F 12.9 °F 95% 29.99 in 1.5 mi WNW 6.9 mph - N/A   Clear
1:40 AM 14.0 °F 3.9 °F 12.0 °F 92% 29.99 in 4.0 mi WNW 6.9 mph - N/A   Clear
1:51 AM 16.0 °F 7.4 °F 12.9 °F 88% 30.01 in 10.0 mi NW 5.8 mph - N/A   Clear
2:51 AM 16.0 °F 5.3 °F 10.9 °F 81% 30.05 in 10.0 mi NW 8.1 mph - N/A   Clear
3:51 AM 15.1 °F 5.2 °F 8.1 °F 74% 30.09 in 10.0 mi NW 6.9 mph - N/A   Clear
4:51 AM 10.9 °F 1.4 °F 6.1 °F 81% 30.13 in 10.0 mi WNW 5.8 mph - N/A   Clear
5:51 AM 10.9 °F -1.8 °F 3.9 °F 73% 30.16 in 10.0 mi NW 9.2 mph - N/A   Clear
6:51 AM 10.0 °F -0.9 °F 3.9 °F 76% 30.20 in 6.0 mi NW 6.9 mph - N/A   Haze
7:51 AM 10.9 °F 0.2 °F 3.0 °F 70% 30.22 in 10.0 mi NW 6.9 mph - N/A   Clear
8:19 AM 10.9 °F -1.8 °F 3.0 °F 70% 30.22 in 2.5 mi NW 9.2 mph - N/A   Haze
8:33 AM 12.0 °F 0.5 °F 1.9 °F 64% 30.22 in 10.0 mi NW 8.1 mph - N/A   Clear
8:51 AM 12.0 °F -1.3 °F 1.9 °F 64% 30.25 in 10.0 mi NW 10.4 mph - N/A   Clear
9:51 AM 15.1 °F 4.2 °F 1.9 °F 56% 30.26 in 10.0 mi WNW 8.1 mph - N/A   Clear
10:51 AM 17.1 °F 3.6 °F 1.9 °F 52% 30.26 in 10.0 mi NNW 12.7 mph - N/A   Clear
11:51 AM 19.0 °F 10.0 °F 3.0 °F 50% 30.26 in 10.0 mi NW 6.9 mph - N/A   Clear
12:51 PM 21.0 °F 10.6 °F 3.9 °F 48% 30.23 in 10.0 mi WNW 9.2 mph - N/A   Clear
1:51 PM 24.1 °F 18.2 °F 3.9 °F 42% 30.21 in 10.0 mi WNW 4.6 mph - N/A   Clear
2:51 PM 24.1 °F - 3.9 °F 42% 30.22 in 10.0 mi Calm Calm - N/A   Clear
3:51 PM 23.0 °F 13.1 °F 3.0 °F 42% 30.21 in 10.0 mi NW 9.2 mph - N/A   Clear
4:51 PM 21.0 °F 14.6 °F 3.0 °F 46% 30.21 in 10.0 mi WNW 4.6 mph - N/A   Clear
5:51 PM 17.1 °F - 5.0 °F 59% 30.21 in 10.0 mi Calm Calm - N/A   Clear
6:15 PM 17.1 °F - 8.1 °F 68% 30.19 in 2.5 mi Calm Calm - N/A   Haze
6:23 PM 14.0 °F - 7.0 °F 74% 30.19 in 9.0 mi Calm Calm - N/A   Clear
6:51 PM 12.9 °F - 7.0 °F 77% 30.21 in 10.0 mi Calm Calm - N/A   Clear
7:51 PM 7.0 °F - 3.0 °F 84% 30.21 in 10.0 mi Calm Calm - N/A   Clear
8:51 PM 3.9 °F - 1.0 °F 88% 30.20 in 10.0 mi Calm Calm - N/A   Clear
9:51 PM 3.0 °F - -0.0 °F 87% 30.21 in 10.0 mi Calm Calm - N/A   Clear
10:51 PM 3.0 °F - -0.9 °F 84% 30.20 in 10.0 mi Calm Calm - N/A   Clear
11:51 PM 1.9 °F - -2.9 °F 80% 30.19 in 9.0 mi Calm Calm - N/A   Clear